Hourly Data Report for May 21, 2015

All times are specified in Local Standard Time (LST). Add 1 hour to adjust for Daylight Saving Time where and when it is observed.

Metadata including Station Name, Province, Latitude, Longitude, Elevation, Climate ID, WMO ID, TC ID
GRAND ETANG
NOVA SCOTIA
Latitude: 46°33'00.000" N Longitude: 61°03'00.000" W Elevation: 12.80 m
Climate ID: 8201969 WMO ID: TC ID: WZQ
Hourly Data Report for May 21, 2015
Temp Definition
°C

Dew Point Temp Definition
°C

Rel Hum Definition
%

Wind Dir Definition
10's deg
Wind Spd Definition
km/h

Visibility Definition
km

Stn Press Definition
kPa

Hmdx Definition

Wind Chill Definition

Weather Definition

00:00 8.3 LegendMM 79 21 17 99.75 LegendNANA
01:00 7.5 LegendMM 80 21 18 99.75 LegendNANA
02:00 7.1 LegendMM 82 23 27 99.77 LegendNANA
03:00 6.9 LegendMM 84 24 32 99.80 LegendNANA
04:00 6.8 LegendMM 84 23 28 99.86 LegendNANA
05:00 6.6 LegendMM 82 24 24 99.91 LegendNANA
06:00 6.9 LegendMM 82 25 27 100.02 LegendNANA
07:00 8.3 LegendMM 77 24 25 100.13 LegendNANA
08:00 8.7 LegendMM 75 24 20 100.27 LegendNANA
09:00 9.2 LegendMM 74 24 18 100.35 LegendNANA
10:00 9.7 LegendMM 72 25 28 100.40 LegendNANA
11:00 10.3 LegendMM 71 24 21 100.44 LegendNANA
12:00 11.5 LegendMM 67 23 22 100.53 LegendNANA
13:00 12.2 LegendMM 65 22 22 100.60 LegendNANA
14:00 13.8 LegendMM 59 22 16 100.63 LegendNANA
15:00 15.5 LegendMM 51 22 2 100.63 LegendNANA
16:00 14.2 LegendMM 51 36 3 100.61 LegendNANA
17:00 15.3 LegendMM 56 30 7 100.66 LegendNANA
18:00 14.8 LegendMM 48   0 100.72 LegendNANA
19:00 15.3 LegendMM 46 21 2 100.74 LegendNANA
20:00 12.3 LegendMM 54 16 13 100.80 LegendNANA
21:00 11.6 LegendMM 56 16 13 100.89 LegendNANA
22:00 8.1 LegendMM 76 2 11 100.98 LegendNANA
23:00 6.8 LegendMM 79 10 6 101.05 LegendNANA

Notes on Data Quality.

Legend
  • E = Estimated
  • M = Missing
  • NA = Not Available
  • ‡ = Partner data that is not subject to review by the National Climate Archives